cubair logo

For once you have tasted flight you will walk the earth with your eyes turned skywards,
for there you have been and there you will long to return.


"Leonardo da Vinci"

Cub Air Flight was founded in 2006, by Steve and Sharon Krog. Cub Air Flight school uses vintage Piper J3 Cub aircraft to instruct in, following a philosophy that “old school is still cool.” Cub Air Flight believes that these fine classic airplanes make better pilots by requiring more attention and flying skill than newer airplanes. We at Cub Air Flight hold that flying a vintage airplane is as much an art as it is a science.

The Piper J3 Cub is revered among aviators as a truly classic and iconic airplane. It has served as a trainer to more pilots than almost any airplane, earning a reputation as easy to fly but yet challenging enough to force students to continually better themselves. Cub Air uses two J3 Cubs, restored and maintained with the same attention to detail as a lovingly restored classic car. Cub Air also uses a Piper Cherokee for training requiring an aircraft with more advanced instruments.

PrintEmail

Come fly with us and feel the freedom of
flying, the way it's supposed to be!


"Old School Is Still Cool!"

Our Staff

Steve Krog
Sharon Krog
Jamie Weber
Luke Lachendro
Chris Hibben

Shop Our Store

shopping-cart-icon-515

Find Us Here!

Hartford Municipal

Airport (KHXF)

4200 Highway U

Hartford, WI 53027

Juneau Weather

[source: ADDS]
METAR
KUNU 251715Z AUTO 27012G16KT 230V290 10SM CLR 17/00 A2992 RMK AO2 T01710002 =
TAF

Fond Du Lac Weather

[source: ADDS]
METAR
KFLD 251653Z AUTO 29019G26KT 10SM CLR 17/01 A2989 RMK AO2 PK WND 29030/1632 SLP122 T01720011 =
TAF

West Bend Weather

[source: ADDS]
METAR
KETB 251715Z AUTO 27019G22KT 10SM CLR 17/M01 A2989 RMK AO2 =
TAF

Oshkosh Weather

[source: ADDS]
METAR
KOSH 251653Z 29015G23KT 10SM CLR 16/01 A2988 RMK AO2 PK WND 29026/1609 SLP113 T01610011 =
TAF